Overview Statistics Trail Chart Weather Telemetry Raw packets
 

This is the latest recevied weather packets stored in our database for station/object IW9CSJ-13. If no packets are shown the sender has not sent any weather packets the latest 10 day(s).

<< 7 8 9 10 11 12 >>
Time Temp. Humidity Pressure Rain* Wind** Luminosity Snow
1787828121 33.89° C 38% 1018.7 hPa 0 mm - - -
1787825121 34.44° C 46% 1018.7 hPa 0 mm - - -
1787816120 31.67° C 51% 1018.7 hPa 0 mm - - -
1787815821 31.11° C 51% 1018.6 hPa 0 mm - - -
1787815220 30.56° C 50% 1018.5 hPa 0 mm - - -
1787813720 30.56° C 52% 1018.2 hPa 0 mm - - -
1787813421 30.56° C 52% 1018.1 hPa 0 mm - - -
1787813120 30.56° C 52% 1017.9 hPa 0 mm - - -
1787812220 30° C 52% 1017.7 hPa 0 mm - - -
1787768420 27.22° C 83% 1016.6 hPa 0 mm - - -
1787768121 27.22° C 83% 1016.6 hPa 0 mm - - -
1787767220 27.78° C 83% 1016.5 hPa 0 mm - - -
1787766620 27.78° C 82% 1016.6 hPa 0 mm - - -
1787766321 27.78° C 82% 1016.6 hPa 0 mm - - -
1787765719 27.78° C 81% 1016.6 hPa 0 mm - - -
1787765421 27.78° C 81% 1016.7 hPa 0 mm - - -
1787764821 27.78° C 81% 1016.6 hPa 0 mm - - -
1787763620 28.33° C 80% 1016.7 hPa 0 mm - - -
1787762420 28.33° C 79% 1016.6 hPa 0 mm - - -
1787762121 28.89° C 77% 1016.6 hPa 0 mm - - -
1787761821 28.89° C 77% 1016.6 hPa 0 mm - - -
1787761520 28.89° C 77% 1016.6 hPa 0 mm - - -
1787761221 28.89° C 76% 1016.5 hPa 0 mm - - -
1787760921 28.89° C 76% 1016.5 hPa 0 mm - - -
1787760620 28.89° C 76% 1016.5 hPa 0 mm - - -

* Rain latest hour (hover to see other rain measurements)
** Current wind speed in m/s (hover to see current wind gust speed)